CDT,Max TemperatureF,Mean TemperatureF,Min TemperatureF,Max Dew PointF,MeanDew PointF,Min DewpointF,Max Humidity, Mean Humidity, Min Humidity, Max Sea Level PressureIn, Mean Sea Level PressureIn, Min Sea Level PressureIn, Max VisibilityMiles, Mean VisibilityMiles, Min VisibilityMiles, Max Wind SpeedMPH, Mean Wind SpeedMPH, Max Gust SpeedMPH,PrecipitationIn, CloudCover, Events, WindDirDegrees
2013-3-1,33,25,17,27,20,12,93,81,70,30.34,30.27,30.21,10,8,4,18,7,22,0.00,4,,340
2013-3-2,35,24,12,30,21,7,93,82,73,30.34,30.23,30.08,10,6,0,15,6,,0.00,2,,201
2013-3-3,42,34,26,34,30,23,93,81,70,30.08,29.81,29.60,10,9,6,15,8,,0.00,0,,186
2013-3-4,42,36,30,36,30,18,93,76,48,30.13,29.78,29.58,10,9,4,28,11,40,0.00,4,,347
2013-3-5,42,32,23,21,18,14,80,56,39,30.37,30.30,30.14,10,10,10,25,15,33,0.00,0,,334
2013-3-6,44,32,21,27,22,16,86,66,49,30.38,30.25,30.07,10,10,10,24,8,30,0.00,0,,143
2013-3-7,60,46,32,36,28,21,66,52,36,30.08,30.00,29.94,10,10,10,23,16,28,0.00,0,,153
2013-3-8,64,52,39,52,41,28,88,68,53,30.00,29.90,29.79,10,10,2,29,19,37,0.00,3,,151
2013-3-9,68,52,35,54,46,28,94,77,35,29.79,29.62,29.47,10,10,3,31,22,41,0.25,5,,178
2013-3-10,35,30,24,28,22,16,87,72,60,30.05,29.91,29.70,10,7,0,40,23,51,0.00,7,,342
2013-3-11,51,35,19,32,20,12,80,57,35,30.03,29.98,29.90,10,10,10,14,10,,0.00,1,,297
2013-3-12,51,40,28,34,25,16,87,55,26,30.35,30.22,30.02,10,10,10,22,9,28,0.00,2,,329
2013-3-13,62,43,24,37,27,18,74,56,34,30.38,30.29,30.18,10,10,10,23,7,29,0.00,1,,175
2013-3-14,73,56,39,39,35,32,81,52,23,30.18,30.13,30.08,10,10,10,14,10,,0.00,0,,188
2013-3-15,82,60,37,43,37,32,81,50,19,30.08,29.85,29.70,10,10,10,23,9,28,0.00,0,,234
2013-3-16,53,42,32,39,29,21,76,62,50,30.03,29.94,29.75,10,10,10,29,18,34,0.00,0,,34
2013-3-17,44,37,30,34,28,21,87,73,61,30.02,29.84,29.63,10,10,7,18,11,17,0.00,7,,90
2013-3-18,55,44,33,34,26,16,87,57,22,30.01,29.91,29.74,10,9,3,17,9,26,0.03,1,,338
2013-3-19,53,40,26,27,21,16,80,50,30,30.27,30.13,30.01,10,10,10,20,9,24,0.00,0,,109
2013-3-20,46,34,23,25,19,14,86,54,34,30.40,30.23,29.94,10,10,10,18,8,18,0.00,0,,93
2013-3-21,53,43,33,28,22,18,70,48,35,29.93,29.76,29.63,10,10,10,26,17,34,0.00,1,,120
2013-3-22,48,38,28,34,28,25,93,73,50,29.95,29.89,29.83,10,8,2,15,6,,0.00,5,,52
2013-3-23,33,30,28,28,27,23,87,85,75,30.03,29.92,29.87,8,3,0,24,14,32,0.00,8,,46
2013-3-24,33,26,19,23,17,10,86,68,55,30.18,30.12,30.03,10,8,1,28,21,37,0.00,2,,333
2013-3-25,33,25,17,18,14,10,80,62,48,30.36,30.30,30.20,10,10,10,21,14,28,0.00,2,,321
2013-3-26,51,33,15,27,19,9,80,61,35,30.37,30.26,30.10,10,10,10,22,8,26,0.00,0,,197
2013-3-27,57,44,30,30,27,21,75,52,33,30.15,30.07,30.03,10,10,10,18,11,25,0.00,1,,97
2013-3-28,64,46,28,39,33,23,93,61,34,30.16,30.12,30.06,10,10,7,14,6,17,0.00,0,,70
2013-3-29,73,53,33,54,43,28,93,69,38,30.14,30.08,30.00,10,10,4,18,8,24,0.00,1,,115
2013-3-30,69,58,46,54,49,45,94,74,43,30.08,29.95,29.90,10,8,0,25,10,32,0.04,3,Thunderstorm,356
2013-3-31,62,52,41,45,39,34,93,66,34,30.09,30.03,29.93,10,10,10,15,9,21,0.10,1,,312